Regional Weather Roundup
Issued by NWS Charleston, SC

Current Version | Previous Version | Graphics & Text | Print | Product List | Glossary On
Versions: 1 2 3 4 5 6 7 8 9 10 11 12 13 14 15 16 17 18 19 20 21 22 23 24 25 26 27 28 29 30 31 32 33 34 35 36 37 38 39 40 41 42 43 44 45 46 47 48 49 50
000
ASUS42 KCHS 210525
RWRCHS

REGIONAL WEATHER ROUNDUP
NATIONAL WEATHER SERVICE CHARLESTON SC
1200 AM EST SUN DEC 21 2014

NOTE: "FAIR" INDICATES FEW OR NO CLOUDS BELOW 12,000 FEET WITH NO
SIGNIFICANT WEATHER AND/OR OBSTRUCTIONS TO VISIBILITY.

NOT ALL STATIONS ARE QUALITY CONTROLLED BY THE NATIONAL
WEATHER SERVICE. USE DATA WITH CAUTION...ESPECIALLY
DEWPOINT OBSERVATIONS.

SCZ027-030-031-034>040-042>050-210600-
...SOUTHEAST SOUTH CAROLINA...

CITY           SKY/WX    TMP DP  RH WIND       PRES   REMARKS
N CHARLESTON   CLOUDY    47  44  90 NE10      30.22F
WATERFRONT PRK NOT AVBL
MOUNT PLEASANT CLOUDY    46  46 100 N6        30.21F FOG
PINOPOLIS        N/A     46  45  93 NE7       30.15F
MONCKS CORNER  CLOUDY    46  43  87 NE3       30.23S
SUMMERVILLE    CLOUDY    46  45  93 N8        30.23S
BEAUFORT MCAS  LGT RAIN  50  48  93 N10       30.20F
BEAUFORT ARPT  CLOUDY    50  50 100 N10       30.19F
HILTON HEAD IS CLOUDY    52  50  93 N10       30.21R
WALTERBORO     CLOUDY    46 N/A N/A N6        30.22F HAZE
ALLENDALE      CLOUDY    48  46  93 CALM      30.21F FOG

...SOUTHERN MIDLANDS AND PEE DEE...

CITY           SKY/WX    TMP DP  RH WIND       PRES   REMARKS
GEORGETOWN     NOT AVBL
KINGSTREE      NOT AVBL
ORANGEBURG     CLOUDY    45  41  86 NE3       30.23F
BARNWELL         N/A     46  45  93 NE6       30.22F
AIKEN          CLOUDY    45  45 100 NE3       30.25S
MANNING        NOT AVBL
COLUMBIA       CLOUDY    46  39  76 E7        30.23F
SUMTER         CLOUDY    43  39  86 NE7       30.23F
FLORENCE       CLEAR     37  35  92 NE5       30.26F FOG     WCI  33
MYRTLE BEACH   CLOUDY    43  39  87 N8        30.23F
N MYRTLE BEACH CLOUDY    42  39  89 N6        30.24F

$$

GAZ063-065-086>088-099>101-113>116-118-119-134>141-150-210600-
...SOUTHEAST GEORGIA...

CITY           SKY/WX    TMP DP  RH WIND       PRES   REMARKS
SAVANNAH ARPT  LGT RAIN  52  49  89 NE9       30.19F
HUNTER AAF     CLOUDY    52  52 100 NE9       30.15F
FORT STEWART   CLOUDY    53  51  93 NE6       30.16S
STATESBORO     DRIZZLE   49  49 100 E6        30.19F
SYLVANIA       CLOUDY    49  49  99 NE6       30.20F FOG
CLAXTON        CLOUDY    52  52 100 NE7       30.20R

...CSRA...CENTRAL AND FAR SOUTHEAST GEORGIA...

CITY           SKY/WX    TMP DP  RH WIND       PRES   REMARKS
THOMSON        CLOUDY    49  49 100 NE3       30.26F VSB 1/2
AUGUSTA-BUSH   CLOUDY    47  45  93 E7        30.23F FOG
AUGUSTA-DANIEL CLOUDY    48  46  93 E7        30.22F
SWAINSBORO     LGT RAIN N/A N/A N/A E6        30.19F
VIDALIA        LGT RAIN  52  52 100 E7        30.18F
EASTMAN        CLOUDY    53  53 100 E5        30.20S
HAZLEHURST     CLOUDY    54  54 100 CALM      30.16F
ALMA           CLOUDY    54  51  90 VRB5      30.17S
WAYCROSS       CLOUDY    57  55  94 E7        30.16F
JESUP          CLOUDY    55  54  94 E5        30.17F
BAXLEY         CLOUDY    54  52  94 E5        30.17S
BRUNSWICK      CLOUDY    55  52  88 NE9       30.17S
SAINT SIMONS   CLOUDY    56  53  90 NE14G21   30.16S

$$

SCZ027-028-034-036>038-045-046-048>050-GAZ119-141-210600-
...LAKE AND SUPPLEMENTAL COASTAL OBSERVATIONS...

STATION/POSITION TIME  TEMP    WIND        PRES    WAVE   SWELL
                       AIR SEA DIR/SP/G            HT/PER HT/PER/DIR
                 (UTC) (F)     (DEG/KT/KT) (MB)    (FT/S) (FT/S/D)
UPR LAKE MARION  NOT AVBL
WINYAH BAY       0500   45      10/  6     1022.0F
LAKE MURRAY      0500   45      40/  2/  4 1023.4F
ACE BASIN NERRS  0500   49      20/  3     1022.0F
FORT PULASKI     0500   52 56   20/  9/ 11 1022.5F
SAPELO ISLAND    0500   54      30/ 11     1021.0S

$$

ANZ835-935-AMZ111-154-330-350-352-354-370-450-454-472-210600-
...C-MAN AND BUOY OBSERVATIONS...

STATION/POSITION TIME  TEMP    WIND        PRES    WAVE   SWELL
                       AIR SEA DIR/SP/G            HT/PER HT/PER/DIR
                 (UTC) (F)     (DEG/KT/KT) (MB)    (FT/S) (FT/S/D)
BUOY 41004       0500   62 68   30/ 19/ 23 1020.6F   6/ 6   2/10
BUOY 41008       0500   56 59   30/ 21/ 25 1020.5F   5/ 6
FOLLY BEACH CMAN 0500   49      10/ 13/ 14 1023.2F
CAPERS NEARSHORE 0400   49      40/ 17/ 19   N/A
FRIPP NEARSHORE  NOT AVBL


STATION/POSITION TIME  TEMP    WIND        PRES    WAVE   SWELL
                       AIR SEA DIR/SP/G            HT/PER HT/PER/DIR
                 (UTC) (F)     (DEG/KT/KT) (MB)    (FT/S) (FT/S/D)
5E ST. MARYS GA  0500      62                N/A     4/ 5
FRYING PAN BUOY  0500   57 65   40/ 16/ 19 1023.0F   4/ 5   2/ 90/ 8
BUOY 41025       0500   49                 1024.2F   3/ 4
CAPE LOOKOUT NC  0500   44      20/ 12/ 14 1023.9F
BUOY 41002       0420   66 71   90/ 19/ 21 1020.4F   6/ 6   2/ 90/10
BUOY 41010       0500   74 76  160/  4/  8 1019.8F   2/10   2/120/10
ST AUGUSTINE FL  0500   62     360/ 15/ 15 1020.2F


$$


USA.gov is the U.S. government's official web portal to all federal, state and local government web resources and services.